Theta_e
351 352 351 353 351 352 349 345 338 335 336 340 337 344 343 343 346 352 348 353 351 349 347 346 346 346 347 348 349 348 347 347 346 345 345 346 348 349
336 338 348 353 353 353 352 350 347 342 338 344 342 342 344 346 345 348 348 353 351 348 346 344 344 345 345 345 345 345 344 344 343 343 342 342 343 345
336 334 334 341 345 350 354 352 348 347 342 347 346 346 348 350 353 346 349 349 348 346 345 344 342 342 342 343 344 343 343 343 342 342 342 342 343 345
329 334 335 336 333 333 335 348 352 351 346 343 347 348 347 348 349 351 352 351 346 347 344 342 341 339 338 338 339 339 338 339 339 339 338 339 342 345
325 323 323 326 332 333 331 330 331 346 351 347 345 350 351 350 347 347 348 350 352 351 346 342 340 338 337 335 334 333 331 331 332 332 331 331 336 341
320 320 320 321 321 325 331 330 330 340 343 346 347 347 348 348 347 346 345 348 349 353 353 348 345 341 338 336 335 334 329 326 324 323 324 325 325 333
317 319 321 323 327 327 325 326 330 325 324 322 323 329 340 345 344 345 343 344 345 346 348 350 348 344 344 338 341 338 332 329 325 321 321 322 322 323
313 315 316 322 322 324 326 329 330 328 324 321 319 317 318 327 344 345 343 340 338 350 348 343 345 343 345 344 340 338 332 330 327 323 321 321 321 321
312 313 314 318 320 319 321 323 324 328 330 326 323 321 321 323 330 340 343 344 343 347 344 341 345 344 348 348 337 333 330 329 327 325 322 321 321 319
311 313 314 315 316 318 317 317 317 318 322 328 327 326 327 328 329 330 338 343 346 347 348 340 342 339 341 344 336 333 330 327 325 323 321 320 318 316
309 312 314 314 317 318 317 316 317 317 321 321 323 324 324 323 324 323 320 333 337 341 345 340 342 340 340 341 342 330 327 324 322 321 321 319 316 315
308 309 314 315 315 316 316 315 314 315 318 319 322 324 324 325 324 325 324 322 331 332 339 337 339 335 332 339 341 343 332 319 318 317 319 318 318 326
308 308 309 312 312 312 312 316 316 318 318 316 316 318 321 327 327 328 332 329 327 337 335 335 333 334 335 335 337 338 334 327 326 322 316 317 314 323
307 308 308 309 308 309 311 313 312 313 314 314 314 315 317 319 322 328 333 341 345 341 339 340 337 336 333 332 332 337 338 338 334 333 330 321 314 314
309 309 309 307 306 308 310 311 312 313 313 312 311 312 315 319 322 325 338 338 338 338 341 341 342 340 338 335 332 334 335 341 337 336 333 329 327 322
309 305 306 308 309 311 313 314 314 313 312 311 311 314 317 320 320 322 330 333 337 339 343 345 345 340 339 340 339 337 337 336 338 339 334 332 331 329
305 302 301 304 307 312 314 314 314 314 313 314 314 314 317 322 325 329 331 333 332 332 335 335 328 330 325 334 338 339 337 335 336 339 337 331 329 329
308 306 304 303 307 312 313 314 315 317 317 318 316 315 317 318 322 327 329 329 330 333 334 333 323 322 318 317 320 323 322 325 333 337 337 332 327 327
306 306 305 305 307 311 313 313 313 315 317 318 320 317 314 316 321 325 327 330 329 333 333 332 329 329 323 323 312 311 316 318 330 328 328 323 319 313
307 306 306 306 306 310 311 312 313 314 315 317 321 322 323 323 324 325 327 328 327 322 322 323 325 327 328 324 312 312 306 315 324 315 309 310 311 313
307 306 307 306 307 308 311 315 315 316 317 320 321 322 323 325 325 327 327 317 318 319 317 316 317 319 318 317 311 310 310 309 315 313 311 311 309 309
307 306 307 306 306 307 308 310 311 315 315 315 314 316 318 322 323 323 321 320 319 318 316 317 319 317 315 312 309 309 310 311 311 310 310 311 311 306
305 304 304 304 306 306 306 308 309 309 312 314 316 316 316 316 317 320 321 320 319 317 316 316 316 315 313 312 310 309 309 310 310 308 308 310 311 311
Wind_Speed
7 6 5 6 5 6 5 3 4 8 10 7 4 6 5 4 6 9 9 13 13 14 14 14 14 14 13 13 13 13 12 12 11 10 10 11 11 12
7 7 8 5 6 6 7 5 4 5 7 6 5 5 6 8 6 8 10 14 17 18 17 16 16 16 15 14 14 14 13 13 11 11 11 11 11 12
8 10 10 7 9 8 7 8 9 8 8 10 4 4 4 6 9 5 6 7 7 16 16 17 17 17 15 15 14 15 15 15 13 13 11 11 11 11
15 14 14 10 10 11 9 11 10 11 7 14 12 9 10 9 7 8 6 7 6 12 18 18 17 16 16 17 18 18 15 14 14 12 11 11 10 10
13 13 15 15 15 12 12 11 11 10 8 8 12 9 9 6 5 6 6 7 7 13 16 16 16 17 17 17 17 15 14 15 14 12 11 12 10 9
16 16 16 16 16 16 13 14 13 9 6 8 10 10 8 8 5 8 9 4 9 10 12 14 12 12 18 16 15 17 16 14 14 14 13 12 11 11
17 18 18 21 26 22 14 15 14 8 9 8 9 10 11 8 7 5 5 5 7 8 9 8 5 4 5 14 12 16 16 14 15 15 14 13 12 11
18 18 18 25 22 27 26 24 18 15 15 11 11 13 15 13 10 6 4 3 4 2 1 3 3 4 5 3 9 15 18 17 16 16 15 14 13 12
20 19 18 15 22 19 21 25 25 26 21 14 15 14 14 13 10 11 11 10 10 9 2 6 3 4 4 4 11 13 15 16 17 17 16 16 14 13
19 21 21 21 19 20 20 20 21 19 19 14 18 17 16 16 14 13 15 14 12 8 5 9 6 7 4 6 13 15 17 18 17 17 17 16 14 13
18 19 21 22 25 27 20 20 20 19 17 22 28 28 24 24 23 13 14 12 13 12 7 7 10 10 8 9 8 15 15 15 14 14 14 13 12 10
20 20 26 24 27 28 20 19 20 19 15 16 15 17 20 17 19 17 14 13 12 5 6 8 10 4 3 7 5 4 3 4 7 11 13 12 13 5
17 16 15 26 26 25 24 18 20 17 17 15 14 14 15 14 10 12 13 14 14 13 6 6 5 4 5 5 2 3 4 3 4 5 9 12 12 11
21 17 18 27 24 25 21 24 22 15 10 11 9 11 12 12 12 12 16 15 13 15 8 10 5 6 4 4 5 2 3 4 5 6 6 7 10 13
17 24 35 31 28 22 25 23 22 13 12 13 14 13 12 12 15 12 12 12 10 9 8 9 6 6 5 5 4 4 3 4 6 6 7 8 8 6
24 18 20 21 22 20 16 15 12 12 12 13 13 13 12 12 13 13 11 8 6 9 10 13 12 10 8 7 7 7 5 5 4 6 6 5 6 6
23 11 9 8 10 9 9 10 10 10 11 12 13 13 11 11 11 10 10 9 11 10 10 3 4 5 4 2 7 6 4 4 4 7 6 6 6 8
14 13 12 9 11 7 7 7 8 11 10 9 12 13 11 10 10 8 9 10 11 11 11 5 5 3 3 2 7 3 2 2 3 6 6 6 4 3
12 14 13 12 12 9 8 8 9 9 8 10 11 11 10 12 11 8 9 10 11 9 8 6 8 6 7 6 2 7 1 2 2 2 1 2 3 1
13 14 16 16 14 10 8 9 10 10 10 11 11 10 11 9 8 9 10 10 7 4 3 3 3 4 6 6 5 2 4 2 2 3 3 3 6 10
11 12 12 14 15 14 13 10 9 7 8 6 8 8 5 8 10 9 9 9 8 5 6 4 3 6 7 6 4 3 4 11 3 4 6 4 3 2
7 9 10 10 12 14 14 13 13 10 9 7 7 6 6 5 1 5 5 6 5 7 7 6 5 6 3 5 9 7 6 6 14 21 17 5 5 6
5 5 7 7 8 10 11 13 14 14 13 11 8 8 9 10 9 5 7 7 7 6 8 8 6 8 7 9 10 8 10 7 5 9 9 14 18 22
Wind_Direction
310 282 271 283 280 273 262 233 199 289 286 288 273 277 270 266 248 194 204 216 221 215 222 226 228 233 230 225 222 225 229 233 236 243 254 266 270 270
303 298 294 281 275 274 273 264 225 219 270 281 271 263 282 290 257 216 211 205 212 219 222 226 231 235 232 229 226 221 225 231 229 232 240 253 260 267
305 298 290 288 291 285 276 274 272 263 263 283 242 274 279 288 297 273 247 208 209 213 214 223 229 233 236 237 228 223 221 223 226 226 233 249 257 264
311 307 296 292 279 283 285 285 268 264 255 269 279 279 266 271 263 256 245 230 213 220 221 227 230 232 233 239 235 225 220 219 223 226 228 246 251 256
314 322 316 320 305 284 274 275 279 280 257 259 273 271 270 265 273 273 248 254 250 244 237 231 229 231 228 226 236 228 220 223 221 215 224 242 250 245
304 300 295 293 292 299 298 283 278 275 289 279 272 267 263 266 232 254 274 260 257 253 248 241 230 231 233 227 235 228 222 221 221 220 218 222 233 232
300 296 291 287 287 284 283 284 292 281 277 277 281 287 286 280 263 265 242 261 265 250 247 241 200 205 232 223 233 229 226 221 219 218 220 215 219 221
301 295 289 288 282 280 280 278 267 271 269 263 266 267 269 268 277 267 261 265 283 320 222 261 189 228 231 217 223 220 216 218 219 215 214 209 212 216
294 289 286 281 284 278 275 276 276 275 266 267 263 258 266 269 266 265 263 258 260 261 222 241 223 239 256 236 226 231 228 225 222 213 208 204 200 211
292 288 283 280 274 275 272 268 267 266 269 270 259 256 257 261 258 258 256 255 254 251 194 250 251 255 227 215 218 225 226 226 223 209 207 200 194 203
294 287 279 279 275 272 267 266 266 264 265 258 264 272 274 275 268 272 268 274 265 251 224 236 253 256 256 258 250 213 226 228 229 215 202 183 185 198
298 293 285 279 275 268 261 262 263 261 261 268 270 262 253 250 250 249 251 243 243 268 214 220 240 203 258 240 218 224 203 177 195 183 181 192 194 186
289 284 275 269 268 260 251 257 261 270 264 260 262 263 261 255 249 249 234 233 237 235 210 180 200 196 212 256 238 182 176 164 164 182 209 204 185 197
294 288 277 270 264 262 252 255 260 264 263 258 257 259 258 258 257 262 243 233 230 228 210 199 214 200 192 237 246 220 187 189 176 194 194 188 202 209
297 290 281 272 267 268 259 250 253 255 257 255 253 252 253 259 252 249 241 224 233 231 220 213 201 215 183 208 218 208 178 193 196 190 181 190 191 186
321 309 293 275 263 260 255 248 242 244 244 249 254 253 247 250 240 234 249 238 228 237 223 226 217 209 224 229 228 239 205 210 183 194 192 189 197 199
325 318 314 290 276 254 244 245 245 246 246 244 248 247 234 248 244 232 226 235 234 232 233 182 42 108 82 209 224 219 198 214 191 190 185 191 195 198
337 346 336 306 294 256 247 245 251 253 252 252 242 242 241 232 240 228 230 231 236 237 231 178 152 128 95 38 20 164 161 215 224 192 184 190 181 182
347 347 353 334 315 279 265 256 261 261 270 263 263 241 233 241 235 230 233 232 233 220 207 167 179 162 179 202 150 31 157 208 228 101 88 120 147 76
350 347 353 356 348 329 275 267 265 266 264 265 265 258 223 217 219 225 230 225 230 136 149 126 148 166 197 186 142 96 7 226 255 112 115 71 84 95
340 350 352 356 358 352 351 357 344 284 297 278 271 258 229 220 226 229 227 197 161 148 135 139 174 127 121 106 96 76 31 30 107 146 140 113 103 68
332 336 349 353 351 355 353 2 3 355 358 2 19 34 39 38 192 183 164 168 150 141 133 126 140 141 119 122 121 114 98 74 63 63 50 71 161 152
305 313 323 339 356 356 358 357 11 4 1 351 17 25 38 44 35 29 114 98 122 113 132 142 114 94 103 111 114 108 110 95 64 68 55 45 86 98